This demonstration page uses our WeatherBlox Daily Observations layout. Learn more.

41.55636, -103.73856

Hourly Observations for June 6, 2020

Temp ( °F °C ) Dew Point ( °F °C ) Humidity (%) Winds ( mph kmh ) Pressure ( in mb ) Visibility ( mi km ) Precip ( " mm )
12:58 am 00:58 Clear 85 29.4 45 7.3 25 25 SE 17 28 29.8 1009 10 16.0934 0 0
1:58 am 01:58 Clear 80 26.6 48 9 33 33 SE 14 22 29.79 1009 10 16.0934 0 0
2:58 am 02:58 Partly Cloudy 73 22.7 50 10.2 45 45 ESE 13 20 29.81 1010 10 16.0934 0 0
3:58 am 03:58 Mostly Cloudy 76 24.6 50 9.9 40 40 SE 18 30 29.81 1009 10 16.0934 0 0
4:58 am 04:58 Mostly Cloudy 75 23.8 50 10 42 42 SSE 24 39 29.79 1009 10 16.0934 0 0
5:58 am 05:58 Clear 72 22.3 56 13.3 57 57 SSE 24 39 29.75 1007 10 16.0934 0 0
6:58 am 06:58 Clear 73 22.7 57 14 58 58 SE 25 41 29.72 1007 10 16.0934 0 0
7:58 am 07:58 Clear 67 19.7 58 14.5 72 72 E 17 28 29.72 1007 10 16.0934 0 0
8:58 am 08:58 Clear 68 20.2 58 14.4 69 69 SE 21 33 29.71 1006 10 16.0934 0 0
9:58 am 09:58 Mostly Cloudy 68 19.9 57 13.9 69 69 SE 24 39 29.71 1006 10 16.0934 0 0
10:58 am 10:58 Mostly Cloudy 68 19.8 57 14.1 70 70 SE 18 30 29.71 1006 10 16.0934 0 0
11:58 am 11:58 Mostly Cloudy 67 19.3 57 14.1 72 72 NNW 16 26 29.73 1007 10 16.0934 0 0
12:58 pm 12:58 Mostly Cloudy 66 19.1 58 14.2 73 73 WNW 3 6 29.76 1008 10 16.0934 0 0
1:58 pm 13:58 Partly Cloudy 68 20.1 58 14.7 71 71 SE 8 13 29.74 1007 10 16.0934 0 0
2:58 pm 14:58 Mostly Sunny 71 21.7 58 14.2 63 63 SE 14 22 29.7 1006 10 16.0934 0 0
3:58 pm 15:58 Mostly Sunny 74 23.3 56 13.3 54 54 SSE 6 9 29.69 1005 10 16.0934 0 0
4:58 pm 16:58 Mostly Sunny 78 25.3 55 12.9 46 46 SSW 20 31 29.69 1005 10 16.0934 0 0
5:58 pm 17:58 Mostly Sunny 78 25.3 52 10.9 40 40 SW 21 33 29.7 1006 10 16.0934 0 0
6:58 pm 18:58 Sunny 83 28.3 43 6 24 24 SW 37 59 29.63 1003 10 16.0934 0 0
7:58 pm 19:58 Mostly Sunny 83 28.5 44 6.4 25 25 S 31 50 29.57 1002 10 16.0934 0 0
8:58 pm 20:58 Sunny 87 30.3 42 5.7 21 21 SSW 35 56 29.54 1000 10 16.0934 0 0
9:58 pm 21:58 Sunny 89 31.8 41 4.9 18 18 S 41 67 29.48 998 10 16.0934 0 0
10:58 pm 22:58 Mostly Sunny 89 31.9 37 2.9 16 16 S 39 63 29.43 997 10 16.0934 0 0
11:58 pm 23:58 Windy with Rain Showers Likely 64 17.8 53 11.4 66 66 SW 35 56 29.64 1004 10 16.0934 0 0

Powered by AerisWeather